カタログに戻る

SL-14 R/B

運用中PO
NORAD 15593·ROCKET BODY·🇷🇺 Russia

打ち上げ Mar 5, 1985 から Plesetsk Cosmodrome

Loading…

次のパス (今後24時間)

TLE

最新Source: Space-Track

元期: Sep 14, 2026, 15:15 UTC

1 15593U 85020B   26257.63589467  .00000308  00000-0  31660-4 0  9999
2 15593  82.5403 339.3980 0011982  41.2056 319.0063 14.86952517224289

AllMySatでSL-14 R/Bをリアルタイム追跡

Download on the App Store